Theta_e
311 310 309 309 308 307 306 306 306 305 304 303 301 298 297 296 295 293 292 292 292 292 292 291 290 289 289 288 288 287 287 286 286 287 285 285 286 286 286 286 286 287 287
310 309 309 308 307 306 306 307 306 306 304 303 301 298 297 296 295 293 292 292 291 291 291 290 289 289 288 288 288 287 286 286 286 287 286 286 286 285 285 286 286 286 286
309 308 307 306 306 306 306 306 305 305 304 302 301 299 297 296 294 293 292 291 291 290 290 290 289 288 288 288 287 286 286 285 285 285 286 284 284 284 285 285 285 284 283
308 310 309 307 308 307 306 305 303 304 303 301 300 299 298 297 295 293 292 291 290 289 289 289 288 287 287 286 286 285 285 285 285 285 285 284 283 284 283 283 284 284 283
307 306 305 306 306 306 304 303 303 302 301 300 299 297 296 295 294 293 291 290 289 289 288 287 287 286 286 286 285 285 284 284 283 283 283 284 283 282 282 281 281 282 282
305 307 308 305 304 305 304 303 302 302 300 299 298 297 296 295 293 292 291 290 289 288 287 287 286 286 286 285 284 285 285 285 284 282 282 283 283 282 281 280 279 278 278
303 304 305 304 305 304 305 303 302 301 299 297 296 296 295 294 293 291 290 289 288 287 287 286 286 285 285 284 284 284 284 283 282 281 281 282 281 280 279 279 277 277 277
299 302 302 302 302 302 301 301 300 300 298 298 296 295 294 293 292 291 290 288 287 286 286 286 285 284 284 284 284 284 283 282 282 282 282 282 281 279 277 277 277 277 278
297 300 300 298 298 298 297 298 298 297 297 297 296 294 293 293 291 289 288 287 286 286 286 285 284 284 284 283 283 283 283 282 281 281 281 280 280 279 278 277 279 277 277
296 298 299 298 296 296 295 295 295 295 294 293 292 292 292 291 290 288 286 286 285 285 284 283 283 284 282 283 282 282 282 282 281 280 280 281 280 279 278 278 277 276 275
292 298 299 299 297 293 294 293 292 292 291 290 290 291 290 290 288 288 285 285 285 284 284 283 283 282 282 282 282 281 281 280 281 279 278 279 279 278 278 278 277 276 274
290 291 294 298 298 296 292 293 291 289 289 289 288 288 288 288 287 285 283 283 283 283 283 282 282 281 282 281 281 281 280 279 279 278 278 278 278 278 278 277 276 276 274
286 289 290 291 294 297 295 296 293 290 288 287 287 287 287 289 285 282 282 281 282 282 281 281 280 281 281 281 281 280 279 278 278 277 277 277 276 276 276 276 276 276 275
285 287 289 289 291 292 294 295 296 293 289 288 286 286 287 289 286 283 281 280 280 280 280 281 280 281 280 280 279 278 278 277 276 276 275 275 275 275 275 274 274 274 272
281 283 286 289 291 291 291 292 292 295 293 291 291 290 289 288 288 284 281 280 280 281 286 280 280 279 279 279 278 277 276 275 275 275 274 274 274 274 274 274 273 272 271
278 279 281 284 288 289 290 290 291 288 288 286 288 287 287 285 286 284 282 280 281 283 283 281 279 278 278 277 276 276 275 274 274 274 274 274 273 274 274 274 272 270 271
276 277 278 280 282 285 287 288 288 287 286 285 283 283 285 284 283 283 280 277 280 281 281 279 278 278 277 276 276 275 275 274 273 273 274 273 273 273 272 273 271 270 270
274 275 276 278 281 282 284 284 284 284 283 283 280 279 279 280 281 278 278 277 277 277 280 278 278 277 276 276 275 274 274 273 272 273 273 273 272 272 272 271 270 269 270
273 274 274 276 280 281 282 283 282 281 280 280 280 279 278 278 278 278 277 278 278 280 278 276 276 275 275 274 274 273 273 272 272 272 273 272 271 271 271 270 269 269 269
273 274 275 277 278 280 280 281 280 280 279 279 278 278 277 278 278 279 279 278 280 279 277 275 274 275 274 274 273 273 272 271 271 272 272 272 271 270 270 270 269 269 268
273 274 275 276 277 278 279 279 279 278 277 277 278 277 278 279 279 278 277 278 278 276 274 274 274 274 273 273 273 272 272 271 271 271 272 271 270 270 270 269 269 268 268
274 275 275 276 277 277 277 277 277 276 277 276 277 277 278 278 277 277 277 277 276 273 273 273 273 273 272 272 272 271 271 271 271 271 271 271 270 270 270 269 269 268 268
275 275 276 276 276 276 275 275 275 276 276 275 276 277 277 277 277 276 276 274 272 272 272 272 272 272 272 271 271 271 271 270 270 270 270 270 270 270 269 269 269 268 267
274 274 274 274 274 274 274 274 274 275 275 274 274 276 275 275 276 276 273 272 271 271 272 272 272 271 271 271 270 270 270 270 270 270 270 270 269 269 269 269 269 268 267
272 272 272 272 272 273 273 273 273 273 273 274 274 274 274 275 274 273 271 271 271 271 271 272 271 271 271 271 270 270 270 269 270 270 270 269 269 269 269 269 269 268 268
270 270 271 271 271 271 271 271 272 272 273 273 274 274 274 274 273 271 271 271 271 271 271 271 270 271 271 270 270 269 269 269 270 270 270 269 269 269 269 269 269 268 267
Wind_Speed
30 40 46 49 50 49 51 50 48 47 46 44 44 43 42 43 44 43 41 39 37 35 32 29 26 24 24 23 22 22 21 23 31 37 36 37 38 40 42 44 44 44 44
37 42 46 47 49 51 52 53 52 51 50 46 45 45 43 44 45 46 44 42 40 38 33 30 28 26 25 24 23 22 23 23 29 37 41 40 41 43 45 44 44 45 46
43 42 45 47 48 50 53 56 57 55 54 51 49 47 47 46 47 47 45 44 42 38 34 31 28 27 25 25 23 22 22 24 27 35 41 42 44 42 46 46 47 49 50
37 40 46 47 45 48 51 55 57 54 56 55 53 51 50 48 47 47 47 45 42 39 36 32 30 28 25 25 24 22 22 24 28 33 38 43 43 43 44 48 53 51 53
33 38 49 48 47 48 49 52 53 53 54 54 53 52 50 49 49 49 48 46 43 40 37 33 31 28 25 25 24 22 21 23 27 31 36 40 43 45 44 48 51 55 56
34 35 35 40 46 45 45 48 50 51 53 52 53 52 53 54 52 48 47 46 44 41 38 34 31 28 27 27 25 21 23 25 27 29 32 37 41 40 43 46 49 51 56
32 34 35 37 41 45 44 45 47 50 50 50 50 51 54 54 51 50 48 47 44 41 38 34 31 29 27 25 22 20 21 22 24 25 31 32 37 37 39 43 43 45 48
33 30 31 33 34 40 43 43 44 45 48 48 49 50 53 53 50 49 49 46 45 42 37 34 31 28 26 23 22 21 21 21 22 24 29 31 33 35 36 39 42 51 56
35 31 30 29 30 33 39 39 40 41 45 46 47 50 53 52 50 50 50 47 46 43 39 36 32 28 26 22 22 22 21 20 21 24 26 28 30 32 31 39 44 46 54
34 32 31 29 27 29 32 33 35 37 41 42 46 48 50 48 47 47 50 47 45 43 37 34 31 29 23 22 21 20 19 20 22 26 25 26 29 32 31 33 38 41 45
34 32 31 30 29 26 26 27 30 33 36 39 42 45 46 45 43 45 49 49 45 42 38 35 31 25 22 21 20 18 19 19 21 23 26 27 29 31 32 33 34 37 42
37 33 28 28 29 27 26 25 25 29 32 36 39 41 42 43 41 44 41 46 41 40 37 33 27 24 22 20 18 15 16 17 20 21 24 25 29 31 33 34 36 38 39
45 38 32 29 27 28 28 29 24 28 32 36 40 42 42 40 39 40 36 35 37 36 33 29 24 25 24 20 17 14 15 16 18 21 24 25 26 30 35 37 38 40 44
39 40 34 30 31 31 33 34 31 29 34 38 42 43 43 41 42 46 43 34 29 31 31 27 26 24 21 18 15 13 14 16 18 20 23 24 27 31 35 37 40 41 45
44 43 38 31 33 35 35 37 41 37 37 40 41 42 44 46 47 50 51 45 40 33 32 29 26 25 21 18 15 14 15 16 16 18 20 24 27 32 35 37 38 42 44
45 45 38 37 34 36 37 38 41 42 40 40 39 40 40 40 41 47 49 47 43 42 37 31 30 25 21 18 14 14 15 14 15 16 20 23 27 32 37 39 39 41 43
42 42 38 32 40 39 39 39 41 40 39 35 35 37 36 35 37 42 45 40 44 41 36 31 29 25 21 17 15 15 14 13 14 16 20 24 27 32 37 40 44 43 45
40 38 35 34 38 41 39 37 36 40 39 35 27 27 26 27 31 39 39 36 33 35 32 33 30 25 20 17 16 14 13 12 13 15 20 24 29 34 38 41 44 43 49
42 42 37 29 34 40 38 36 32 32 34 32 30 28 29 27 36 41 38 42 42 34 31 30 27 22 19 17 14 12 12 12 14 16 20 24 30 35 39 41 45 49 49
41 41 35 30 33 37 35 35 32 31 30 31 34 38 32 36 43 44 49 44 36 31 31 29 24 19 16 16 12 12 11 13 14 17 21 25 31 35 39 42 46 50 52
37 34 29 24 33 35 35 32 30 30 30 33 36 40 36 46 45 49 46 38 33 30 28 24 20 17 14 12 11 11 12 13 15 18 22 25 32 37 39 42 50 51 51
31 28 22 26 29 30 28 26 28 29 32 34 37 37 40 50 49 47 38 33 32 28 24 20 16 13 11 11 10 11 13 13 15 18 23 25 32 38 40 45 52 52 52
15 19 22 25 25 23 22 22 25 27 33 38 41 42 43 47 45 37 30 29 28 25 21 17 14 12 12 11 10 12 13 14 16 19 23 26 33 38 39 46 52 54 51
7 9 13 15 15 18 22 26 31 35 38 38 41 43 37 35 37 29 28 26 23 21 17 14 13 12 11 10 11 12 13 14 15 17 21 27 34 37 38 45 51 53 53
1 4 9 13 17 21 24 27 30 31 35 38 41 39 33 33 31 27 25 22 20 16 13 12 10 10 11 11 11 12 13 14 14 17 20 26 32 36 37 44 49 53 54
4 5 8 12 14 16 18 21 24 26 29 32 33 32 30 32 27 24 22 19 15 12 11 10 11 10 10 11 12 12 13 13 13 15 20 26 32 35 37 42 48 52 54
Wind_Direction
278 263 252 249 247 245 244 244 243 243 242 241 240 237 235 235 237 235 235 235 237 239 242 245 249 253 258 264 268 274 281 288 293 301 304 308 312 313 317 320 321 317 314
271 263 259 254 250 248 247 246 243 243 243 241 240 237 235 236 237 236 234 233 235 237 239 244 249 252 256 261 266 272 280 289 294 301 305 310 313 316 319 318 318 317 316
276 272 264 257 254 251 248 248 245 244 244 241 239 236 235 235 234 233 234 235 235 237 239 242 247 252 258 263 266 270 281 289 294 299 305 309 313 317 317 320 321 320 319
287 278 273 263 262 259 252 252 249 248 246 242 240 238 236 234 233 231 232 232 233 234 237 240 243 247 252 258 264 273 282 290 295 298 302 307 314 319 323 323 318 317 317
296 288 277 269 263 260 256 254 253 251 249 245 240 237 236 234 231 229 230 231 232 233 234 236 239 244 251 257 263 271 281 287 294 299 303 311 315 319 321 320 316 315 315
303 290 287 278 270 264 259 256 255 252 248 244 239 236 235 232 230 229 231 230 230 231 232 234 238 243 248 255 261 273 287 293 296 302 305 307 310 315 316 315 316 316 314
327 307 288 281 274 269 265 258 254 252 248 243 238 235 233 232 230 228 228 228 228 229 230 232 234 238 244 252 262 274 280 286 288 289 296 304 308 311 312 314 311 306 301
334 329 310 291 283 276 268 260 254 251 247 245 241 235 232 231 228 227 228 227 227 225 227 231 233 237 244 248 259 268 274 279 288 291 295 304 308 311 307 303 298 297 300
330 330 329 319 298 282 270 262 255 249 246 242 239 234 230 227 224 225 227 225 224 224 224 227 230 233 240 251 259 267 275 286 292 293 298 303 304 302 299 300 303 303 303
321 326 326 325 311 293 278 267 257 251 247 243 236 232 230 228 223 226 227 225 222 221 220 223 227 233 235 246 254 264 276 287 292 296 298 304 306 305 306 303 302 300 304
309 306 316 323 315 297 285 270 260 248 243 239 235 231 229 227 222 226 228 230 224 221 219 220 225 228 234 242 251 262 276 283 288 295 301 307 307 308 310 310 310 309 305
304 301 298 296 304 301 286 276 256 248 242 237 233 229 226 223 218 222 221 233 227 223 220 219 220 225 235 237 243 256 267 279 288 291 298 305 309 314 316 316 315 312 307
301 297 295 293 284 281 277 274 259 250 243 238 233 227 223 223 217 214 207 219 224 221 219 221 217 223 228 232 238 245 261 273 282 290 299 307 315 318 319 319 316 319 318
294 296 294 290 282 274 267 264 260 249 239 236 235 232 225 225 213 210 204 200 215 215 213 219 221 228 222 223 230 242 260 273 282 292 300 313 318 322 323 325 321 323 315
294 282 285 284 283 275 267 263 260 254 247 243 240 236 231 227 218 212 213 204 204 212 222 218 219 217 214 220 228 243 258 270 280 292 307 317 321 324 327 327 326 325 313
292 286 281 278 277 277 269 263 260 255 251 248 248 249 246 241 227 214 211 212 209 215 214 211 215 213 216 220 230 247 259 270 285 302 313 320 323 330 329 328 333 322 315
292 288 285 275 269 268 270 263 257 250 250 249 246 249 247 243 232 218 205 190 206 212 207 209 208 210 214 222 232 245 257 273 294 309 319 322 328 331 331 332 334 329 314
293 290 281 270 266 264 264 266 257 251 240 235 221 220 218 227 230 191 185 185 183 203 204 201 201 204 212 226 235 247 265 284 302 316 322 327 331 332 333 336 333 323 315
295 289 283 273 261 260 263 259 253 245 239 236 221 209 203 193 190 184 182 189 198 203 196 198 201 201 207 224 237 253 273 293 306 317 323 330 332 335 335 337 332 322 318
291 287 282 261 259 259 257 250 241 234 230 223 207 196 190 176 180 180 186 195 202 198 194 197 200 202 212 227 236 258 275 294 309 318 329 331 333 337 338 339 327 322 321
292 284 273 259 251 254 250 243 236 228 218 205 196 194 187 178 182 186 188 198 197 191 193 198 201 208 216 232 247 263 279 295 314 321 326 330 335 336 341 339 330 328 324
287 273 262 251 250 242 240 235 226 211 200 190 184 181 179 184 186 189 195 194 188 190 192 198 203 215 226 240 255 269 287 301 319 320 326 329 334 339 343 337 336 334 328
294 257 249 242 236 232 223 213 205 195 183 185 181 175 186 190 190 191 190 182 185 188 191 195 206 221 235 247 268 283 295 311 319 324 323 326 336 340 340 338 338 337 330
291 233 218 213 206 200 195 189 186 187 186 176 174 183 190 189 187 185 180 183 185 190 192 198 211 226 245 259 270 284 301 310 313 321 319 327 338 337 335 338 339 339 336
357 174 179 178 181 183 184 184 184 184 184 183 183 188 187 184 182 181 182 183 190 195 200 213 229 243 253 265 276 287 294 305 307 313 323 338 332 331 334 336 339 339 340
78 127 150 164 171 175 179 180 183 186 188 189 190 189 184 181 182 183 186 189 194 203 216 230 245 260 277 285 282 287 292 301 302 318 334 330 329 332 334 333 338 341 341